Wind_Speed
14 14 15 14 14 14 15 17 17 19 20 20 20 18 16 18 19 19 20 20 20 19 18 18 20 20 20 6 25 16 22 19 17 10 8 9 13 17 9 12 19 17 18 30 31 33 30
14 15 16 17 18 17 19 19 17 20 22 23 24 21 20 21 21 21 22 21 21 20 20 18 21 20 15 9 8 3 11 16 14 11 14 9 13 19 18 16 16 21 23 25 30 27 28
15 17 16 18 20 20 20 21 20 21 22 23 26 23 20 21 22 23 23 23 22 21 20 20 20 17 18 37 19 19 14 15 14 12 14 11 15 23 13 11 29 27 17 18 19 17 10
18 20 20 17 18 19 20 21 21 21 22 23 27 25 21 20 20 24 24 24 23 21 20 17 16 9 15 16 10 11 11 14 18 15 15 15 12 15 9 13 15 9 11 15 8 11 14
18 20 21 20 20 19 20 22 24 26 24 24 24 23 22 21 22 23 23 23 22 16 13 11 12 10 14 7 12 5 4 10 14 15 17 15 13 10 10 3 5 2 8 13 12 13 14
19 22 21 21 21 22 22 22 20 22 21 22 21 23 23 21 22 19 20 20 10 11 7 3 5 6 15 6 3 4 6 7 7 9 6 12 5 2 4 2 9 6 8 9 11 17 14
19 20 20 23 24 24 22 23 25 21 19 22 25 22 25 22 21 14 15 19 10 3 3 11 12 14 8 10 14 12 9 7 7 9 4 6 4 6 8 8 9 13 15 18 12 13 13
23 23 23 23 20 25 22 19 21 25 26 26 25 23 25 23 18 11 11 7 9 9 14 25 36 41 37 34 19 22 12 8 6 6 6 6 11 7 8 11 13 9 14 24 21 20 14
20 19 20 20 22 21 21 20 21 22 23 22 21 24 25 23 15 5 9 8 10 12 6 18 19 17 17 18 17 21 22 18 7 7 8 7 3 4 9 10 10 12 19 20 23 23 18
22 23 22 24 23 23 20 20 23 22 24 21 19 21 22 21 11 7 3 3 9 12 4 7 6 6 11 7 7 14 17 16 5 6 3 3 5 9 13 14 11 17 15 18 19 11 9
19 20 22 22 21 20 20 24 25 26 21 21 19 17 19 15 14 13 6 5 8 5 5 11 7 11 11 8 5 6 8 19 7 5 6 4 3 4 12 16 15 14 15 15 10 12 17
20 20 21 21 21 21 21 21 21 24 21 19 18 17 16 15 14 9 6 4 9 2 7 6 7 9 8 12 6 7 4 8 2 2 7 9 13 4 5 9 17 11 14 10 9 10 9
21 21 20 20 21 24 24 22 20 21 22 21 17 18 16 15 20 5 4 7 3 4 7 8 7 7 7 5 9 6 7 4 4 3 3 6 16 11 13 7 7 12 8 4 6 5 7
18 19 20 22 23 22 22 21 23 20 20 20 17 17 20 18 17 12 11 2 6 9 7 8 3 2 6 7 8 9 12 6 8 5 3 3 6 10 12 13 5 9 10 3 4 3 3
22 22 22 20 21 20 20 18 21 19 17 15 17 20 23 14 14 10 9 5 4 4 10 7 5 3 5 8 2 4 9 3 12 11 7 3 4 3 10 8 10 4 7 13 5 3 2
21 19 20 20 21 20 19 19 19 16 16 15 16 14 21 8 6 13 6 8 9 11 14 8 4 4 4 7 1 6 7 6 9 6 7 4 4 8 2 0 12 9 7 5 3 3 4
20 22 22 21 20 19 21 18 18 15 14 11 12 6 16 6 14 13 7 7 12 21 19 4 5 8 10 7 5 4 4 3 7 8 9 10 6 4 3 2 8 8 4 5 2 3 2
23 23 24 23 21 21 19 20 16 13 10 10 9 3 7 10 9 4 4 5 6 11 20 7 3 4 7 9 6 5 4 2 4 6 4 5 3 7 16 10 8 8 11 7 3 5 3
23 24 25 24 22 21 19 18 16 13 12 9 5 10 13 13 6 5 4 8 16 17 15 7 6 3 7 6 4 4 9 4 3 3 2 5 2 3 5 3 8 9 14 13 10 2 4
24 25 25 24 22 20 19 17 16 14 12 13 5 3 7 12 6 4 8 9 13 16 14 18 12 13 8 6 5 4 2 3 8 6 4 2 4 4 4 4 2 6 7 19 14 3 4
24 23 22 20 19 19 19 18 17 16 14 14 6 4 5 2 6 7 6 3 8 14 13 14 5 9 10 9 7 5 6 6 6 10 5 3 2 9 11 8 7 2 11 3 12 10 6
23 23 22 20 19 20 18 19 18 16 16 18 4 4 7 8 10 6 6 4 10 12 10 10 12 9 9 10 8 4 5 7 2 5 3 0 3 6 8 11 7 11 14 3 1 4 11
24 23 22 20 17 14 13 17 19 21 21 17 15 22 9 6 5 2 3 7 9 10 12 14 10 7 12 11 4 2 6 5 6 2 3 5 3 4 3 9 14 5 10 13 11 16 11
24 24 23 21 17 17 16 15 21 25 27 28 18 14 5 4 3 4 9 11 11 9 8 9 7 5 4 13 10 3 1 15 10 8 9 4 5 3 4 6 3 4 6 4 2 10 5
26 25 24 22 21 20 19 19 19 23 30 31 29 17 7 3 7 11 12 10 16 17 5 5 13 5 11 10 4 0 3 3 9 14 11 10 5 2 2 3 6 14 4 3 2 7 11
25 24 25 25 25 24 21 20 22 21 28 32 34 29 16 3 7 16 12 13 7 5 3 4 8 4 4 2 1 3 4 6 4 4 18 12 7 5 2 4 5 5 2 10 1 5 7
27 25 23 22 21 22 24 23 24 25 25 36 34 35 22 13 21 13 4 5 7 5 2 6 3 4 6 3 2 3 4 3 4 4 2 10 5 11 7 3 6 5 7 10 4 4 10
26 19 17 18 19 19 20 24 27 27 28 29 42 36 37 16 24 13 15 14 10 11 1 4 4 1 1 2 3 4 1 4 3 9 4 7 7 4 4 3 6 13 6 4 6 18 20
19 17 16 18 19 19 20 21 22 29 31 31 32 42 34 26 7 9 27 30 23 14 6 5 2 2 4 1 1 3 2 2 5 3 5 2 6 5 6 5 9 22 18 24 23 24 22
Wind_Direction
304 307 310 311 311 309 303 300 299 301 301 304 305 294 297 300 305 306 305 306 308 308 304 306 306 310 318 267 260 262 285 280 303 314 282 222 226 232 246 241 242 247 253 255 256 255 260
295 297 298 298 300 302 301 301 307 305 305 308 305 301 291 296 302 302 303 304 303 303 302 300 301 301 302 258 301 325 289 253 270 264 277 242 243 235 260 248 242 256 255 258 262 259 257
298 295 298 302 299 296 296 299 300 303 308 307 309 311 299 294 300 302 302 302 301 299 297 294 292 293 273 258 284 280 255 246 230 238 276 270 251 247 269 285 259 265 273 274 262 269 269
308 303 292 295 296 302 290 295 300 303 306 309 309 306 308 301 301 303 305 304 299 294 291 288 283 268 259 299 303 287 250 249 244 240 262 271 290 302 284 289 297 279 277 268 277 270 275
298 305 305 302 284 296 297 292 293 296 299 306 312 308 306 301 302 309 313 310 300 291 268 287 272 230 264 297 278 340 339 286 272 254 257 273 288 288 296 318 304 279 262 276 261 252 257
302 293 301 304 299 291 292 293 298 297 299 301 311 307 311 301 307 319 318 320 309 250 273 253 225 233 263 235 360 266 265 271 277 244 262 230 247 249 346 214 230 233 268 265 263 270 267
293 293 305 299 302 297 289 294 288 296 297 298 304 306 305 303 309 323 329 356 358 347 261 225 205 220 265 230 293 277 278 223 249 196 199 222 189 203 220 255 272 277 291 278 278 273 294
290 293 297 299 301 302 293 293 295 288 293 294 300 305 305 303 309 313 316 335 354 319 297 273 250 251 256 271 282 266 245 285 179 195 188 262 240 218 241 260 267 288 270 275 288 284 294
295 298 294 292 301 304 290 297 293 285 289 288 289 300 302 302 302 299 313 294 327 317 291 285 243 238 237 229 244 254 239 246 228 205 203 207 250 314 267 240 262 243 251 266 269 285 301
289 289 293 291 298 297 294 294 296 296 291 292 293 305 312 299 291 271 286 261 1 331 291 268 196 224 186 197 234 243 216 211 220 223 61 57 312 305 267 248 221 237 253 277 329 2 279
293 293 286 296 292 294 293 289 286 288 290 292 286 296 307 299 284 289 279 319 314 316 304 150 138 163 172 195 304 154 190 202 218 142 104 222 228 321 253 245 223 247 275 283 308 292 278
295 293 292 294 296 295 295 297 284 286 282 284 287 289 297 294 269 279 311 308 312 201 250 168 137 181 184 207 237 123 130 173 85 187 175 210 251 199 215 273 225 276 295 283 287 291 252
295 295 297 295 293 295 291 289 287 289 291 287 282 283 278 291 249 226 300 316 214 242 280 147 177 164 209 225 218 137 148 135 143 95 310 302 262 223 213 279 233 249 207 176 214 214 241
303 302 300 297 294 292 293 284 290 291 295 282 278 271 276 276 243 265 324 250 239 260 266 104 115 132 273 256 204 156 150 168 216 166 36 195 315 220 193 209 210 228 209 208 179 204 338
303 298 295 294 296 292 292 288 284 287 290 283 289 280 276 267 235 224 255 225 231 255 6 12 343 242 252 228 136 148 182 190 187 176 172 191 241 339 132 256 206 260 226 234 294 285 257
302 300 300 295 289 290 289 282 283 287 287 291 306 273 268 237 218 220 229 232 250 306 349 9 339 316 341 64 20 54 30 342 350 155 179 244 267 239 316 346 199 204 333 205 179 212 228
296 298 300 298 293 293 283 283 277 279 284 276 291 272 287 213 208 222 224 229 261 286 309 336 348 336 342 10 23 54 151 339 20 352 319 221 217 239 26 161 239 214 212 216 203 271 263
294 297 299 296 292 286 286 276 275 269 265 252 252 241 293 236 180 202 219 222 302 301 317 309 312 304 303 329 333 356 132 73 78 356 16 15 269 258 254 223 205 231 263 196 210 187 191
297 298 299 298 290 284 277 275 265 258 242 242 249 262 278 196 202 224 224 256 262 282 289 297 316 237 289 309 335 333 55 113 115 67 86 342 271 268 311 176 210 223 208 225 226 43 235
297 298 295 298 295 281 269 262 258 249 231 232 264 270 219 213 277 278 218 234 246 262 268 270 286 310 303 280 293 279 136 275 207 177 177 103 256 311 296 284 357 307 278 214 219 196 209
294 296 295 296 296 281 263 252 247 238 226 214 209 266 277 261 198 222 253 279 273 255 255 267 280 282 290 291 287 292 314 285 238 177 176 157 272 310 316 312 166 176 293 266 232 216 210
297 296 292 294 293 294 252 240 236 235 216 216 216 244 300 277 286 317 221 261 262 256 259 293 285 279 284 271 264 295 7 5 43 310 286 136 284 303 294 277 250 221 204 237 19 289 241
296 292 290 291 282 281 266 243 226 221 212 210 232 242 311 274 308 298 235 263 272 251 276 277 278 318 315 320 88 40 351 275 215 285 323 317 302 354 286 345 319 300 205 193 188 203 204
293 289 288 285 278 269 268 260 229 218 220 219 215 219 235 277 266 262 300 295 281 263 262 292 294 157 265 324 308 256 268 271 249 228 223 245 312 266 260 314 266 246 300 188 347 33 255
290 286 280 278 273 272 262 255 244 223 218 223 219 207 211 262 264 284 284 277 285 296 304 308 293 230 250 255 275 291 259 268 243 241 231 203 205 269 230 228 285 305 328 41 19 51 62
286 282 280 276 271 267 257 246 238 232 220 222 225 218 226 282 244 254 285 319 328 323 338 264 303 195 84 86 242 188 229 210 240 249 214 200 191 196 299 238 231 234 356 338 203 88 87
286 280 276 276 270 261 253 243 237 234 229 217 225 216 221 243 257 268 268 333 337 352 290 305 298 47 200 180 163 200 241 278 249 257 166 187 183 219 227 244 287 274 318 342 206 128 79
281 274 276 277 268 262 253 245 236 231 227 226 216 217 211 233 249 251 252 283 308 352 140 345 11 65 119 152 205 225 254 264 284 207 276 169 179 191 200 220 250 327 345 51 122 69 71
270 268 277 280 273 263 252 245 235 228 224 223 211 215 213 221 249 254 258 261 262 275 305 325 293 106 294 323 331 331 330 304 26 305 192 224 182 173 160 205 45 38 51 63 82 79 70
Height
1523 1522 1520 1519 1518 1517 1516 1515 1513 1512 1510 1507 1505 1502 1500 1498 1495 1493 1491 1489 1488 1487 1486 1483 1481 1478 1475 1473 1459 1460 1457 1459 1461 1462 1461 1462 1464 1466 1467 1463 1465 1464 1461 1457 1455 1452 1450
1520 1519 1518 1517 1516 1514 1513 1511 1509 1509 1506 1503 1501 1499 1496 1494 1492 1489 1487 1486 1484 1484 1482 1479 1477 1475 1473 1469 1453 1454 1454 1455 1458 1460 1459 1461 1461 1462 1460 1458 1458 1458 1455 1450 1449 1447 1444
1517 1516 1514 1513 1512 1511 1509 1508 1505 1506 1503 1499 1497 1496 1493 1490 1487 1485 1483 1482 1479 1479 1477 1475 1472 1472 1466 1447 1451 1450 1451 1451 1453 1454 1456 1458 1459 1460 1456 1454 1453 1453 1454 1446 1442 1443 1442
1514 1512 1511 1509 1509 1507 1505 1505 1504 1502 1500 1497 1494 1492 1489 1486 1483 1481 1479 1475 1474 1473 1473 1469 1468 1468 1456 1447 1446 1444 1445 1447 1449 1451 1453 1454 1455 1454 1454 1453 1450 1452 1450 1456 1443 1439 1438
1511 1509 1508 1505 1504 1503 1502 1501 1499 1498 1496 1494 1490 1489 1486 1484 1479 1476 1474 1470 1467 1467 1466 1465 1465 1466 1451 1445 1443 1444 1443 1445 1446 1447 1451 1452 1452 1449 1451 1453 1458 1453 1463 1454 1445 1438 1437
1508 1507 1505 1502 1500 1500 1499 1497 1496 1494 1493 1491 1488 1487 1482 1481 1477 1474 1471 1465 1462 1462 1463 1461 1463 1466 1445 1440 1443 1443 1444 1444 1444 1444 1447 1450 1450 1450 1452 1456 1462 1459 1457 1452 1448 1436 1433
1504 1504 1500 1499 1497 1494 1495 1494 1492 1491 1489 1489 1487 1483 1481 1478 1475 1473 1470 1464 1465 1463 1458 1453 1448 1442 1439 1438 1439 1441 1442 1443 1441 1444 1447 1446 1454 1456 1454 1453 1450 1449 1449 1445 1438 1430 1432
1501 1499 1496 1495 1493 1491 1490 1489 1489 1487 1487 1485 1484 1482 1478 1475 1473 1472 1471 1469 1471 1468 1454 1444 1436 1436 1438 1439 1441 1438 1440 1442 1438 1442 1442 1448 1450 1449 1450 1450 1451 1452 1457 1456 1439 1428 1437
1497 1495 1493 1491 1489 1487 1485 1486 1485 1482 1482 1480 1481 1478 1476 1473 1472 1471 1470 1469 1469 1464 1460 1431 1425 1429 1430 1434 1435 1430 1436 1435 1436 1438 1438 1446 1445 1445 1447 1445 1453 1458 1457 1457 1444 1431 1430
1492 1491 1489 1487 1485 1483 1482 1482 1481 1480 1479 1478 1476 1475 1474 1471 1473 1468 1467 1467 1467 1464 1462 1429 1420 1421 1425 1428 1430 1424 1428 1432 1431 1435 1434 1443 1443 1447 1449 1444 1448 1455 1451 1446 1449 1453 1461
1488 1485 1484 1482 1481 1480 1479 1478 1478 1477 1476 1475 1474 1473 1473 1472 1469 1467 1467 1464 1465 1463 1459 1413 1417 1418 1421 1425 1423 1423 1423 1428 1431 1432 1439 1444 1444 1452 1448 1441 1450 1449 1450 1451 1459 1455 1450
1483 1481 1479 1478 1477 1476 1475 1474 1473 1472 1472 1471 1471 1471 1470 1468 1468 1465 1465 1464 1464 1463 1448 1410 1412 1416 1419 1419 1417 1419 1421 1426 1428 1430 1434 1438 1441 1445 1446 1442 1445 1452 1455 1453 1455 1455 1453
1479 1477 1475 1474 1473 1472 1471 1470 1469 1468 1468 1467 1467 1467 1467 1466 1464 1464 1464 1463 1463 1453 1402 1408 1410 1409 1411 1411 1410 1413 1422 1428 1434 1441 1443 1439 1437 1436 1440 1445 1444 1450 1450 1453 1458 1455 1440
1474 1473 1471 1469 1468 1467 1466 1466 1465 1465 1463 1464 1463 1463 1462 1461 1461 1462 1464 1464 1454 1418 1407 1401 1405 1407 1412 1406 1405 1408 1419 1429 1430 1432 1442 1445 1447 1429 1429 1437 1438 1437 1444 1441 1439 1440 1427
1470 1468 1466 1465 1464 1463 1462 1462 1461 1461 1461 1461 1460 1459 1457 1455 1458 1461 1464 1459 1436 1421 1412 1410 1409 1411 1409 1402 1404 1405 1412 1419 1420 1426 1442 1440 1438 1426 1427 1434 1435 1437 1438 1431 1442 1434 1441
1465 1463 1462 1460 1459 1458 1458 1458 1458 1458 1458 1458 1457 1455 1452 1452 1456 1460 1457 1448 1435 1421 1420 1416 1418 1410 1411 1404 1406 1414 1417 1423 1422 1422 1425 1430 1438 1423 1424 1424 1428 1435 1436 1436 1444 1441 1434
1460 1459 1458 1457 1455 1454 1454 1454 1454 1455 1455 1456 1455 1453 1445 1449 1455 1457 1447 1445 1433 1428 1428 1422 1421 1422 1417 1414 1411 1414 1431 1429 1426 1426 1427 1426 1432 1427 1422 1426 1427 1432 1438 1436 1433 1427 1427
1455 1454 1453 1452 1450 1450 1449 1450 1451 1452 1454 1454 1454 1453 1444 1444 1452 1448 1445 1442 1434 1431 1430 1428 1423 1424 1423 1419 1417 1416 1425 1427 1428 1430 1433 1429 1425 1428 1421 1413 1419 1428 1431 1430 1430 1428 1421
1450 1448 1447 1446 1445 1444 1445 1445 1447 1449 1451 1453 1452 1448 1445 1445 1448 1443 1445 1442 1439 1435 1433 1429 1426 1424 1422 1423 1428 1418 1422 1431 1429 1430 1434 1434 1431 1429 1416 1413 1411 1417 1422 1425 1426 1428 1427
1444 1443 1441 1440 1439 1439 1439 1442 1443 1446 1449 1452 1453 1448 1442 1444 1444 1442 1441 1438 1438 1435 1432 1430 1428 1425 1425 1425 1424 1427 1425 1432 1430 1428 1429 1429 1431 1428 1430 1429 1434 1423 1419 1419 1426 1426 1421
1439 1437 1435 1434 1434 1433 1434 1437 1440 1443 1446 1450 1450 1446 1440 1444 1441 1442 1440 1438 1439 1433 1429 1427 1425 1427 1428 1429 1425 1426 1425 1426 1426 1426 1427 1428 1431 1426 1420 1415 1424 1426 1426 1421 1420 1417 1421
1432 1431 1430 1429 1428 1427 1428 1431 1435 1439 1443 1447 1447 1446 1441 1437 1436 1435 1436 1435 1434 1434 1433 1431 1429 1427 1427 1428 1427 1428 1429 1429 1432 1430 1427 1426 1429 1426 1423 1411 1406 1415 1411 1415 1417 1415 1412
1426 1425 1424 1423 1423 1423 1424 1426 1430 1434 1438 1440 1443 1444 1446 1438 1436 1437 1438 1432 1430 1430 1429 1430 1432 1435 1433 1430 1426 1428 1430 1433 1433 1434 1432 1431 1428 1426 1423 1413 1410 1410 1398 1400 1404 1404 1399
1420 1418 1418 1418 1418 1419 1420 1422 1424 1428 1431 1435 1438 1443 1445 1442 1437 1435 1432 1430 1429 1428 1429 1429 1430 1432 1432 1431 1430 1426 1425 1430 1429 1429 1428 1431 1431 1427 1432 1424 1422 1395 1387 1385 1388 1391 1387
1412 1411 1411 1411 1412 1412 1414 1416 1419 1421 1425 1429 1434 1439 1440 1440 1436 1433 1432 1430 1429 1427 1429 1429 1429 1428 1430 1434 1435 1430 1430 1428 1424 1421 1422 1423 1429 1437 1433 1423 1409 1394 1388 1387 1391 1399 1397
1404 1403 1403 1403 1404 1405 1407 1410 1412 1416 1420 1424 1428 1435 1439 1438 1434 1434 1432 1432 1434 1430 1427 1427 1427 1427 1430 1436 1432 1434 1434 1423 1416 1410 1405 1416 1422 1431 1432 1424 1422 1396 1387 1382 1383 1406 1402
1396 1395 1394 1394 1395 1396 1399 1402 1406 1409 1414 1417 1420 1429 1436 1436 1429 1432 1433 1434 1433 1431 1435 1429 1428 1428 1430 1436 1438 1437 1429 1412 1415 1412 1411 1417 1423 1426 1429 1429 1411 1390 1386 1383 1395 1415 1404
1387 1387 1387 1387 1388 1389 1391 1394 1398 1402 1407 1411 1415 1422 1428 1428 1427 1429 1430 1432 1433 1434 1434 1430 1431 1430 1432 1436 1435 1427 1426 1415 1409 1404 1408 1410 1420 1425 1427 1427 1423 1394 1390 1395 1404 1403 1404
1379 1380 1380 1380 1381 1382 1384 1387 1390 1394 1399 1405 1409 1414 1423 1428 1425 1425 1425 1428 1431 1434 1435 1432 1430 1429 1427 1426 1424 1422 1424 1416 1417 1410 1403 1414 1404 1411 1411 1412 1408 1406 1404 1404 1404 1406 1409